Location: Unspecified
(41.9031°N, 12.4386°E)
Time: 07:05:43
(UTC+01:00)

ISS - Visible Passes

Search period start: 15 December 2019 00:00
Search period end: 25 December 2019 00:00
Orbit: 411 x 421 km, 51.6° (Epoch: 15 December)

Date Brightness Start Highest point End Pass type
(mag) Time Alt. Az. Time Alt. Az. Time Alt. Az.
21 Dec -1.0 06:19:08 10° S 06:21:42 21° SE 06:24:17 10° E visible
22 Dec -0.5 05:31:57 10° SSE 05:33:21 12° SE 05:34:45 10° ESE visible
23 Dec -3.2 06:17:51 10° SW 06:21:06 59° SE 06:24:23 10° ENE visible
24 Dec -2.2 05:31:38 27° S 05:32:37 33° SE 05:35:38 10° ENE visible
